GW4344 Weather Reports


Display with metric or nautical units.
time (UTC)temp
F
wind
direction
speed
MPH
gust
MPH
rain 1hr
in
rain 24hr
in
rain mn
in
humidity
%
barometer
mb
20260506143108 79 72 0.0 200.0 0.00 0.00 0.00 40 125.2
20260506142607 79 73 0.0 200.0 0.00 0.00 0.00 41 125.2
20260506142106 79 69 0.0 200.0 0.00 0.00 0.00 40 125.2
20260506141605 78 66 0.0 200.0 0.00 0.00 0.00 43 125.2
20260506141104 78 66 0.0 200.0 0.00 0.00 0.00 41 125.2
20260506140604 78 66 0.0 200.0 0.00 0.00 0.00 40 125.2
20260506140103 78 66 0.0 200.0 0.00 0.00 0.00 39 125.2
20260506135602 78 67 0.0 200.0 0.00 0.00 0.00 39 125.2
20260506135101 78 68 0.0 200.0 0.00 0.00 0.00 39 125.2
20260506134600 78 73 0.0 200.0 0.00 0.00 0.00 40 125.3
20260506134100 79 78 0.0 200.0 0.00 0.00 0.00 37 125.4
20260506133559 79 76 0.0 200.0 0.00 0.00 0.00 37 125.4
20260506133058 79 76 0.0 200.0 0.00 0.00 0.00 39 125.5
20260506132557 79 76 0.0 200.0 0.00 0.00 0.00 38 125.5
20260506131540 79 81 0.0 200.0 0.00 0.00 0.00 37 125.6
20260506130524 79 89 0.0 200.0 0.00 0.00 0.00 38 125.9
20260506130023 79 88 0.0 200.0 0.00 0.00 0.00 37 125.8
20260506125522 79 88 0.0 200.0 0.00 0.00 0.00 39 125.7
20260506125022 79 86 0.0 200.0 0.00 0.00 0.00 41 125.8
20260506124521 79 85 0.0 200.0 0.00 0.00 0.00 39 125.7
20260506124021 79 87 0.0 200.0 0.00 0.00 0.00 38 125.8
20260506123521 79 88 0.0 200.0 0.00 0.00 0.00 39 125.8
20260506123021 79 87 0.0 200.0 0.00 0.00 0.00 38 125.8
20260506122520 80 81 0.0 200.0 0.00 0.00 0.00 39 125.8
20260506121504 79 66 0.0 200.0 0.00 0.00 0.00 42 125.5
20260506121003 79 49 0.0 200.0 0.00 0.00 0.00 44 125.2
20260506120502 78 37 0.0 200.0 0.00 0.00 0.00 48 125.0
20260506120002 77 37 0.0 200.0 0.00 0.00 0.00 53 125.0
20260506114430 77 33 0.0 200.0 0.00 0.00 0.00 51 124.9
20260506113929 77 20 0.0 200.0 0.00 0.00 0.00 53 124.6
20260506113428 76 11 0.0 200.0 0.00 0.00 0.00 52 124.4
20260506112927 76 6 0.0 200.0 0.00 0.00 0.00 56 124.4
20260506112426 76 2 0.0 200.0 0.00 0.00 0.00 53 124.2
20260506111925 75 2 0.0 200.0 0.00 0.00 0.00 56 124.2
20260506110910 75 347 0.0 200.0 0.00 0.00 0.00 52 123.9
20260506110409 74 340 0.0 200.0 0.00 0.00 0.00 51 123.9
20260506105910 74 333 0.0 200.0 0.00 0.00 0.00 53 123.7
20260506105408 74 328 0.0 200.0 0.00 0.00 0.00 54 123.6
20260506104907 74 324 0.0 200.0 0.00 0.00 0.00 54 123.5
20260506104407 73 328 0.0 200.0 0.00 0.00 0.00 51 123.5
20260506103906 73 339 0.0 200.0 0.00 0.00 0.00 52 123.8
20260506103406 73 350 0.0 200.0 0.00 0.00 0.00 49 124.0
20260506102905 74 357 0.0 200.0 0.00 0.00 0.00 50 124.1
20260506102405 74 356 0.0 200.0 0.00 0.00 0.00 49 124.1
20260506101903 74 354 0.0 200.0 0.00 0.00 0.00 49 124.1
20260506100330 74 7 0.0 200.0 0.00 0.00 0.00 48 124.4
20260506095830 74 11 0.0 200.0 0.00 0.00 0.00 49 124.4
20260506095328 75 12 0.0 200.0 0.00 0.00 0.00 51 124.5
20260506094312 74 20 0.0 200.0 0.00 0.00 0.00 49 124.7
20260506093256 74 25 0.0 200.0 0.00 0.00 0.00 48 124.8
20260506091208 74 28 0.0 200.0 0.00 0.00 0.00 48 125.0
20260506090150 74 11 0.0 200.0 0.00 0.00 0.00 47 124.8
20260506085650 74 4 0.0 200.0 0.00 0.00 0.00 49 124.6
20260506085148 74 353 0.0 200.0 0.00 0.00 0.00 47 124.4
20260506084647 73 344 0.0 200.0 0.00 0.00 0.00 48 124.2
20260506084146 73 330 0.0 200.0 0.00 0.00 0.00 48 124.1
20260506083131 72 307 0.0 200.0 0.00 0.00 0.00 51 123.5
20260506082630 71 303 0.0 200.0 0.00 0.00 0.00 51 123.3
20260506082129 71 304 0.0 200.0 0.00 0.00 0.00 53 123.3
20260506081110 71 305 0.0 200.0 0.00 0.00 0.00 54 123.4
20260506080609 71 303 0.0 200.0 0.00 0.00 0.00 59 123.4
20260506080109 71 307 0.0 200.0 0.00 0.00 0.00 57 123.4
20260506073105 69 266 0.0 200.0 0.00 0.00 0.00 58 122.7
20260506072605 69 263 0.0 200.0 0.00 0.00 0.00 59 122.7
20260506072104 69 261 0.0 200.0 0.00 0.00 0.00 58 122.6
20260506071046 68 250 0.0 200.0 0.00 0.00 0.00 63 122.5
20260506070546 68 240 0.0 200.0 0.00 0.00 0.00 61 122.3
20260506062009 64 130 0.0 200.0 0.00 0.00 0.00 64 119.7
20260506061508 63 118 0.0 200.0 0.00 0.00 0.00 66 119.4
20260506061008 63 107 0.0 200.0 0.00 0.00 0.00 68 119.1
20260506050425 59 23 0.0 200.0 0.00 0.00 0.00 73 116.7
20260506044907 58 13 0.0 200.0 0.00 0.00 0.00 73 116.4
20260506044406 58 12 0.0 200.0 0.00 0.00 0.00 75 116.4
20260506043905 57 10 0.0 200.0 0.00 0.00 0.00 75 116.3
20260506043405 57 4 0.0 200.0 0.00 0.00 0.00 76 116.2
20260506042348 56 350 0.0 200.0 0.00 0.00 0.00 76 115.9
20260506041847 56 345 0.0 200.0 0.00 0.00 0.00 77 115.8
20260506041346 56 342 0.0 200.0 0.00 0.00 0.00 77 115.7
20260506040845 56 341 0.0 200.0 0.00 0.00 0.00 76 115.6
20260506040344 56 338 0.0 200.0 0.00 0.00 0.00 75 115.6
20260506035843 56 333 0.0 200.0 0.00 0.00 0.00 75 115.4
20260506035342 57 327 0.0 200.0 0.00 0.00 0.00 74 115.3
20260506034325 56 321 0.0 200.0 0.00 0.00 0.00 75 115.1
20260506033824 56 322 0.0 200.0 0.00 0.00 0.00 75 115.1
20260506033323 56 319 0.0 200.0 0.00 0.00 0.00 76 115.1
20260506032822 56 318 0.0 200.0 0.00 0.00 0.00 76 115.1
20260506032322 55 316 0.0 200.0 0.00 0.00 0.00 76 115.0
20260506030750 55 317 0.0 200.0 0.00 0.00 0.00 75 115.1
20260506030249 55 319 0.0 200.0 0.00 0.00 0.00 75 115.1
20260506025748 55 319 0.0 200.0 0.00 0.00 0.00 75 115.2
20260506025247 55 320 0.0 200.0 0.00 0.00 0.00 75 115.2
20260506024746 54 321 0.0 200.0 0.00 0.00 0.00 76 115.2
20260506024245 54 321 0.0 200.0 0.00 0.00 0.00 77 115.2
20260506023744 55 321 0.0 200.0 0.00 0.00 0.00 76 115.2
20260506023243 55 323 0.0 200.0 0.00 0.00 0.00 76 115.2
20260506022742 55 323 0.0 200.0 0.00 0.00 0.00 76 115.2
20260506022241 55 324 0.0 200.0 0.00 0.00 0.00 76 115.3
20260506021740 55 324 0.0 200.0 0.00 0.00 0.00 76 115.3
20260506021239 55 324 0.0 200.0 0.00 0.00 0.00 77 115.3
20260506020738 55 323 0.0 200.0 0.00 0.00 0.00 78 115.2
20260506015721 54 325 0.0 200.0 0.00 0.00 0.00 78 115.3
20260506015220 54 327 0.0 200.0 0.00 0.00 0.00 78 115.4
20260506014720 54 329 0.0 200.0 0.00 0.00 0.00 79 115.4
20260506013703 55 332 0.0 200.0 0.00 0.00 0.00 79 115.4
20260506013202 55 335 0.0 200.0 0.00 0.00 0.00 80 115.5
20260506012145 55 344 0.0 200.0 0.00 0.00 0.00 79 115.7
20260506011128 56 354 0.0 200.0 0.00 0.00 0.00 78 115.9
20260506010627 56 359 0.0 200.0 0.00 0.00 0.00 77 116.0
20260506010127 56 6 0.0 200.0 0.00 0.00 0.00 75 116.2
20260506005626 57 13 0.0 200.0 0.00 0.00 0.00 75 116.4
20260506005125 57 24 0.0 200.0 0.00 0.00 0.00 73 116.6
20260506004624 58 32 0.0 200.0 0.00 0.00 0.00 71 116.8
20260506004123 59 37 0.0 200.0 0.00 0.00 0.00 69 116.9
20260506003622 59 42 0.0 200.0 0.00 0.00 0.00 66 117.0
20260506002605 60 47 0.0 200.0 0.00 0.00 0.00 59 117.1
20260506002105 60 50 0.0 200.0 0.00 0.00 0.00 58 117.1
20260506001604 60 52 0.0 200.0 0.00 0.00 0.00 57 117.2
20260506001103 60 54 0.0 200.0 0.00 0.00 0.00 56 117.2
20260506000602 61 55 0.0 200.0 0.00 0.00 0.00 55 117.2
20260506000101 61 55 0.0 200.0 0.00 0.00 0.00 55 117.2
20260505235601 62 55 0.0 200.0 0.00 0.00 0.00 54 117.2
20260505235100 62 54 0.0 200.0 0.00 0.00 0.00 53 117.2
20260505234043 62 54 0.0 200.0 0.00 0.00 0.00 53 117.2
20260505233542 62 54 0.0 200.0 0.00 0.00 0.00 53 117.2
20260505233041 62 54 0.0 200.0 0.00 0.00 0.00 53 117.1
20260505232540 62 54 0.0 200.0 0.00 0.00 0.00 53 117.2
20260505232039 62 55 0.0 200.0 0.00 0.00 0.00 52 117.2
20260505231538 62 56 0.0 200.0 0.00 0.00 0.00 52 117.2
20260505231037 62 59 0.0 200.0 0.00 0.00 0.00 53 117.3
20260505225505 62 65 0.0 200.0 0.00 0.00 0.00 53 117.4
20260505225005 62 68 0.0 200.0 0.00 0.00 0.00 53 117.5
20260505224505 63 70 0.0 200.0 0.00 0.00 0.00 53 117.5
20260505224005 63 71 0.0 200.0 0.00 0.00 0.00 53 117.5
20260505223504 63 71 0.0 200.0 0.00 0.00 0.00 53 117.5
20260505223004 62 73 0.0 200.0 0.00 0.00 0.00 54 117.6
20260505222504 62 73 0.0 200.0 0.00 0.00 0.00 54 117.7
20260505222004 62 72 0.0 200.0 0.00 0.00 0.00 55 117.6
20260505221503 62 74 0.0 200.0 0.00 0.00 0.00 55 117.7
20260505221002 62 76 0.0 200.0 0.00 0.00 0.00 56 117.7
20260505220502 62 78 0.0 200.0 0.00 0.00 0.00 56 117.7
20260505220001 62 79 0.0 200.0 0.00 0.00 0.00 56 117.8
20260505215500 62 80 0.0 200.0 0.00 0.00 0.00 56 117.8
20260505214442 63 82 0.0 200.0 0.00 0.00 0.00 56 117.8
20260505213941 63 83 0.0 200.0 0.00 0.00 0.00 56 117.8
20260505212924 63 85 0.0 200.0 0.00 0.00 0.00 53 117.9
20260505211907 63 87 0.0 200.0 0.00 0.00 0.00 52 118.0
20260505211406 63 88 0.0 200.0 0.00 0.00 0.00 52 118.0
20260505210906 63 87 0.0 200.0 0.00 0.00 0.00 52 118.0
20260505210405 63 89 0.0 200.0 0.00 0.00 0.00 51 118.0
20260505205904 63 89 0.0 200.0 0.00 0.00 0.00 47 118.0
20260505204847 63 89 0.0 200.0 0.00 0.00 0.00 47 118.0
20260505203830 63 90 0.0 200.0 0.00 0.00 0.00 47 118.0
20260505203329 63 91 0.0 200.0 0.00 0.00 0.00 47 118.0
20260505202828 63 92 0.0 200.0 0.00 0.00 0.00 47 118.0
20260505202327 63 94 0.0 200.0 0.00 0.00 0.00 47 118.0
20260505201826 64 93 0.0 200.0 0.00 0.00 0.00 46 118.0
20260505200810 65 87 0.0 200.0 0.00 0.00 0.00 44 117.9
20260505200309 65 84 0.0 200.0 0.00 0.00 0.00 44 117.8
20260505195808 65 82 0.0 200.0 0.00 0.00 0.00 44 117.8
20260505195308 65 81 0.0 200.0 0.00 0.00 0.00 44 117.8
20260505194807 65 79 0.0 200.0 0.00 0.00 0.00 44 117.8
20260505193750 65 78 0.0 200.0 0.00 0.00 0.00 44 117.7
20260505192733 65 77 0.0 200.0 0.00 0.00 0.00 45 117.7
20260505192232 65 78 0.0 200.0 0.00 0.00 0.00 45 117.7
20260505191731 65 80 0.0 200.0 0.00 0.00 0.00 46 117.7
20260505191230 65 81 0.0 200.0 0.00 0.00 0.00 46 117.8
20260505190729 65 80 0.0 200.0 0.00 0.00 0.00 46 117.8
20260505190228 65 79 0.0 200.0 0.00 0.00 0.00 46 117.8
20260505185727 65 79 0.0 200.0 0.00 0.00 0.00 47 117.8
20260505185226 65 82 0.0 200.0 0.00 0.00 0.00 47 117.9
20260505184725 64 88 0.0 200.0 0.00 0.00 0.00 48 118.0
20260505184224 65 97 0.0 200.0 0.00 0.00 0.00 49 118.1
20260505183724 65 108 0.0 200.0 0.00 0.00 0.00 49 118.4
20260505183223 65 115 0.0 200.0 0.00 0.00 0.00 49 118.5
20260505182722 66 118 0.0 200.0 0.00 0.00 0.00 48 118.6
20260505181705 66 127 0.0 200.0 0.00 0.00 0.00 46 118.8
20260505180649 67 135 0.0 200.0 0.00 0.00 0.00 46 118.9
20260505180149 67 138 0.0 200.0 0.00 0.00 0.00 46 119.0
20260505175648 67 140 0.0 200.0 0.00 0.00 0.00 46 119.0
20260505175147 68 143 0.0 200.0 0.00 0.00 0.00 46 119.2
20260505174646 68 145 0.0 200.0 0.00 0.00 0.00 45 119.3
20260505174145 68 150 0.0 200.0 0.00 0.00 0.00 45 119.3
20260505173128 69 168 0.0 200.0 0.00 0.00 0.00 45 119.8
20260505172627 69 181 0.0 200.0 0.00 0.00 0.00 45 120.0
20260505172126 69 197 0.0 200.0 0.00 0.00 0.00 45 120.4
20260505171625 69 216 0.0 200.0 0.00 0.00 0.00 45 120.8
20260505171124 70 235 0.0 200.0 0.00 0.00 0.00 44 121.2
20260505170624 70 255 0.0 200.0 0.00 0.00 0.00 42 121.6
20260505170123 71 277 0.0 200.0 0.00 0.00 0.00 42 122.0
20260505165622 71 293 0.0 200.0 0.00 0.00 0.00 42 122.3
20260505164605 73 314 0.0 200.0 0.00 0.00 0.00 41 122.7
20260505164105 73 320 0.0 200.0 0.00 0.00 0.00 41 122.8
20260505163604 73 328 0.0 200.0 0.00 0.00 0.00 41 123.1
20260505163103 73 340 0.0 200.0 0.00 0.00 0.00 42 123.3
20260505162602 74 352 0.0 200.0 0.00 0.00 0.00 42 123.5
20260505162101 74 6 0.0 200.0 0.00 0.00 0.00 40 123.8
20260505161601 75 26 0.0 200.0 0.00 0.00 0.00 40 124.2
20260505161100 75 42 0.0 200.0 0.00 0.00 0.00 39 124.5
20260505160559 76 55 0.0 200.0 0.00 0.00 0.00 39 124.8
20260505153022 81 121 0.0 200.0 0.00 0.00 0.00 30 126.2
20260505152521 82 117 0.0 200.0 0.00 0.00 0.00 29 126.1
20260505152020 81 114 0.0 200.0 0.00 0.00 0.00 30 126.1
20260505151004 81 111 0.0 200.0 0.00 0.00 0.00 31 126.0
20260505150503 81 108 0.0 200.0 0.00 0.00 0.00 30 126.0